Location: ??????????
(48.4699°N, 37.9573°E)
Time: 13:38:13
(UTC+00:00)

ERS-2 - Pass Details

Date: 20 January 2021
Orbit: 492 x 497 km, 98.6° (Epoch: 26 February)

Event Time Altitude Azimuth Distance (km) Brightness Sun altitude
Exits shadow 16:07:04 28° 13° (NNE) 952 3.3 -19.3°
Maximum altitude 16:08:53 86° 288° (WNW) 502 2.0 -19.6°
Drops below altitude 10° 16:12:30 10° 198° (SSW) 1,683 5.1 -20.2°
Sets 16:14:34 0° 197° (SSW) 2,560 6.1 -20.6°
